N750XL KHOU-KEQY

Flight info

Callsign N750XL
Flight time 1h 47m
Altitude 45000
Route ELOCO6 LLA MEI THRSR JOOLS1
Aircraft C750/M-SBDE3FGHRWXY/S

Departure

Time 2026-05-05 23:10
Airport William P. Hobby Airport (KHOU)

Arrival

Time 2026-05-06 00:57
Airport Charlotte-Monroe Executive Airport (KEQY)
Time Latitude Longitude Altitude Speed Heading
2026-05-05 22:56 29.63689 -95.27564 48 ft 0 kts 90°
2026-05-05 23:01 29.63689 -95.27563 48 ft 1 kts 92°
2026-05-05 23:02 29.63677 -95.27569 47 ft 5 kts 255°
2026-05-05 23:02 29.63720 -95.27627 46 ft 12 kts 355°
2026-05-05 23:02 29.63802 -95.27629 49 ft 12 kts 359°
2026-05-05 23:02 29.63880 -95.27630 49 ft 11 kts 359°
2026-05-05 23:03 29.63957 -95.27632 49 ft 12 kts 360°
2026-05-05 23:03 29.64042 -95.27622 49 ft 12 kts 33°
2026-05-05 23:03 29.64103 -95.27557 49 ft 12 kts 44°
2026-05-05 23:03 29.64163 -95.27491 48 ft 12 kts 44°
2026-05-05 23:04 29.64219 -95.27429 49 ft 11 kts 44°
2026-05-05 23:04 29.64272 -95.27374 49 ft 10 kts 28°
2026-05-05 23:04 29.64325 -95.27406 49 ft 9 kts 313°
2026-05-05 23:04 29.64364 -95.27454 48 ft 9 kts 314°
2026-05-05 23:05 29.64423 -95.27524 48 ft 13 kts 314°
2026-05-05 23:05 29.64483 -95.27595 46 ft 12 kts 315°
2026-05-05 23:05 29.64549 -95.27673 48 ft 14 kts 314°
2026-05-05 23:05 29.64619 -95.27755 48 ft 15 kts 314°
2026-05-05 23:06 29.64690 -95.27840 48 ft 14 kts 314°
2026-05-05 23:06 29.64757 -95.27920 48 ft 13 kts 314°
2026-05-05 23:06 29.64820 -95.27995 49 ft 13 kts 314°
2026-05-05 23:06 29.64879 -95.28066 51 ft 12 kts 314°
2026-05-05 23:07 29.64938 -95.28137 51 ft 13 kts 313°
2026-05-05 23:07 29.65005 -95.28219 51 ft 15 kts 314°
2026-05-05 23:07 29.65084 -95.28306 51 ft 16 kts 315°
2026-05-05 23:07 29.65130 -95.28374 48 ft 0 kts 282°
2026-05-05 23:08 29.65131 -95.28383 49 ft 1 kts 278°
2026-05-05 23:08 29.65119 -95.28421 49 ft 9 kts 251°
2026-05-05 23:08 29.65073 -95.28481 49 ft 11 kts 195°
2026-05-05 23:09 29.65019 -95.28464 45 ft 0 kts 134°
2026-05-05 23:09 29.64912 -95.28339 50 ft 78 kts 133°
2026-05-05 23:09 29.64324 -95.27641 168 ft 145 kts 136°
2026-05-05 23:10 29.63559 -95.26729 665 ft 169 kts 136°
2026-05-05 23:10 29.62744 -95.25723 1480 ft 175 kts 139°
2026-05-05 23:10 29.62207 -95.25033 2127 ft 172 kts 138°
2026-05-05 23:10 29.61407 -95.23967 2973 ft 187 kts 137°
2026-05-05 23:11 29.60497 -95.22833 3840 ft 201 kts 135°
2026-05-05 23:11 29.59864 -95.21295 4630 ft 229 kts 108°
2026-05-05 23:11 29.59769 -95.19406 5496 ft 241 kts 93°
2026-05-05 23:11 29.59753 -95.17505 6562 ft 237 kts 90°
2026-05-05 23:12 29.59824 -95.15585 7372 ft 246 kts 94°
2026-05-05 23:12 29.59713 -95.13571 8159 ft 260 kts 99°
2026-05-05 23:12 29.59486 -95.11460 8941 ft 276 kts 100°
2026-05-05 23:12 29.59276 -95.09195 9725 ft 293 kts 99°
2026-05-05 23:13 29.59094 -95.06810 10431 ft 306 kts 97°
2026-05-05 23:13 29.58898 -95.04325 11138 ft 318 kts 97°
2026-05-05 23:13 29.58815 -95.01744 11800 ft 331 kts 85°
2026-05-05 23:13 29.59422 -94.99151 12498 ft 341 kts 72°
2026-05-05 23:14 29.60188 -94.96543 13267 ft 349 kts 71°
2026-05-05 23:14 29.60944 -94.93861 14004 ft 356 kts 72°
2026-05-05 23:14 29.61679 -94.91112 14702 ft 363 kts 72°
2026-05-05 23:14 29.62436 -94.88313 15409 ft 370 kts 71°
2026-05-05 23:15 29.63224 -94.85472 16132 ft 376 kts 71°
2026-05-05 23:15 29.64137 -94.82638 16854 ft 380 kts 65°
2026-05-05 23:15 29.65155 -94.79845 17597 ft 387 kts 66°
2026-05-05 23:15 29.66175 -94.76956 18346 ft 393 kts 66°
2026-05-05 23:16 29.67216 -94.74026 19024 ft 399 kts 65°
2026-05-05 23:16 29.68293 -94.71052 19716 ft 406 kts 65°
2026-05-05 23:16 29.69382 -94.68034 20422 ft 412 kts 64°
2026-05-05 23:16 29.70481 -94.64958 21146 ft 418 kts 64°
2026-05-05 23:17 29.71592 -94.61843 21888 ft 424 kts 64°
2026-05-05 23:17 29.72722 -94.58690 22648 ft 429 kts 64°
2026-05-05 23:17 29.73808 -94.55471 23396 ft 436 kts 69°
2026-05-05 23:17 29.74179 -94.51970 23951 ft 448 kts 91°
2026-05-05 23:18 29.73850 -94.48395 24609 ft 451 kts 98°
2026-05-05 23:18 29.73379 -94.44818 25325 ft 453 kts 100°
2026-05-05 23:18 29.72900 -94.41219 26046 ft 455 kts 99°
2026-05-05 23:18 29.72478 -94.37599 26771 ft 458 kts 98°
2026-05-05 23:19 29.72066 -94.33964 27506 ft 460 kts 99°
2026-05-05 23:19 29.71635 -94.30314 28258 ft 461 kts 99°
2026-05-05 23:19 29.71228 -94.26647 29029 ft 463 kts 98°
2026-05-05 23:19 29.70833 -94.22968 29822 ft 463 kts 99°
2026-05-05 23:20 29.70424 -94.19294 30513 ft 463 kts 99°
2026-05-05 23:20 29.70003 -94.15619 31207 ft 463 kts 99°
2026-05-05 23:20 29.69588 -94.11951 31919 ft 461 kts 99°
2026-05-05 23:20 29.69182 -94.08297 32653 ft 460 kts 99°
2026-05-05 23:21 29.68777 -94.04660 33401 ft 457 kts 99°
2026-05-05 23:21 29.68632 -94.01011 34098 ft 456 kts 91°
2026-05-05 23:21 29.68619 -93.97379 34775 ft 453 kts 90°
2026-05-05 23:21 29.68601 -93.93775 35471 ft 449 kts 91°
2026-05-05 23:22 29.68562 -93.90242 36070 ft 449 kts 91°
2026-05-05 23:22 29.68520 -93.86639 36554 ft 452 kts 90°
2026-05-05 23:22 29.68490 -93.83010 37053 ft 455 kts 90°
2026-05-05 23:22 29.68461 -93.79364 37569 ft 457 kts 90°
2026-05-05 23:23 29.68424 -93.75696 38098 ft 460 kts 90°
2026-05-05 23:23 29.68383 -93.72014 38623 ft 461 kts 89°
2026-05-05 23:23 29.68345 -93.68318 39082 ft 463 kts 90°
2026-05-05 23:23 29.68308 -93.64610 39551 ft 464 kts 90°
2026-05-05 23:24 29.68267 -93.60895 40030 ft 465 kts 90°
2026-05-05 23:24 29.68224 -93.57172 40518 ft 466 kts 90°
2026-05-05 23:24 29.68181 -93.53448 41016 ft 466 kts 90°
2026-05-05 23:24 29.68138 -93.49728 41531 ft 465 kts 90°
2026-05-05 23:25 29.68093 -93.46008 42048 ft 464 kts 90°
2026-05-05 23:25 29.68047 -93.42302 42578 ft 462 kts 91°
2026-05-05 23:25 29.68000 -93.38621 43117 ft 460 kts 91°
2026-05-05 23:25 29.67953 -93.34951 43673 ft 456 kts 91°
2026-05-05 23:26 29.67905 -93.31318 44232 ft 453 kts 91°
2026-05-05 23:26 29.67857 -93.27717 44744 ft 449 kts 91°
2026-05-05 23:26 29.67807 -93.24133 45067 ft 449 kts 91°
2026-05-05 23:26 29.67756 -93.20497 45050 ft 459 kts 91°
2026-05-05 23:27 29.67649 -93.13006 45062 ft 477 kts 91°
2026-05-05 23:27 29.67532 -93.05232 45074 ft 495 kts 91°
2026-05-05 23:28 29.67407 -92.97191 45077 ft 511 kts 91°
2026-05-05 23:28 29.67273 -92.88894 45081 ft 526 kts 91°
2026-05-05 23:29 29.67131 -92.80422 45079 ft 541 kts 91°
2026-05-05 23:29 29.66978 -92.71668 45080 ft 554 kts 91°
2026-05-05 23:30 29.66816 -92.62734 45084 ft 563 kts 91°
2026-05-05 23:30 29.66645 -92.53663 45086 ft 570 kts 91°
2026-05-05 23:31 29.66750 -92.44514 45063 ft 574 kts 82°
2026-05-05 23:31 29.68704 -92.35650 45070 ft 571 kts 65°
2026-05-05 23:32 29.72594 -92.27778 45066 ft 562 kts 47°
2026-05-05 23:32 29.77978 -92.21418 45084 ft 551 kts 34°
2026-05-05 23:33 29.83782 -92.15638 45076 ft 555 kts 36°
2026-05-05 23:33 29.89032 -92.09016 45066 ft 563 kts 44°
2026-05-05 23:34 29.94054 -92.02173 45067 ft 560 kts 40°
2026-05-05 23:34 29.99446 -91.95704 45085 ft 561 kts 41°
2026-05-05 23:35 30.04595 -91.88906 45077 ft 561 kts 42°
2026-05-05 23:35 30.09906 -91.82317 45084 ft 560 kts 41°
2026-05-05 23:36 30.15111 -91.75581 45098 ft 562 kts 41°
2026-05-05 23:36 30.20372 -91.68919 45100 ft 561 kts 40°
2026-05-05 23:37 30.25600 -91.62209 45098 ft 562 kts 41°
2026-05-05 23:37 30.30835 -91.55507 45086 ft 561 kts 41°
2026-05-05 23:38 30.36029 -91.48845 45084 ft 561 kts 41°
2026-05-05 23:38 30.41164 -91.42220 45082 ft 541 kts 40°
2026-05-05 23:39 30.46244 -91.35717 45081 ft 547 kts 41°
2026-05-05 23:39 30.51344 -91.29112 45084 ft 552 kts 41°
2026-05-05 23:40 30.56499 -91.22468 45093 ft 555 kts 41°
2026-05-05 23:40 30.61663 -91.15773 45095 ft 558 kts 41°
2026-05-05 23:41 30.66828 -91.09079 45085 ft 555 kts 41°
2026-05-05 23:41 30.71987 -91.02381 45053 ft 557 kts 41°
2026-05-05 23:42 30.74572 -90.99018 44932 ft 557 kts 41°
2026-05-05 23:42 30.77142 -90.95668 44924 ft 554 kts 41°
2026-05-05 23:42 30.82248 -90.89020 44922 ft 555 kts 41°
2026-05-05 23:43 30.87384 -90.82310 44926 ft 555 kts 41°
2026-05-05 23:43 30.92519 -90.75595 44933 ft 555 kts 41°
2026-05-05 23:44 30.97640 -90.68885 44921 ft 554 kts 41°
2026-05-05 23:44 31.02771 -90.62154 44922 ft 556 kts 41°
2026-05-05 23:45 31.07901 -90.55406 44920 ft 556 kts 41°
2026-05-05 23:45 31.13031 -90.48652 44922 ft 556 kts 41°
2026-05-05 23:46 31.18159 -90.41884 44930 ft 556 kts 41°
2026-05-05 23:46 31.23283 -90.35112 44925 ft 556 kts 40°
2026-05-05 23:47 31.28412 -90.28322 44928 ft 557 kts 40°
2026-05-05 23:47 31.33551 -90.21504 44926 ft 559 kts 40°
2026-05-05 23:48 31.38690 -90.14675 44934 ft 559 kts 41°
2026-05-05 23:48 31.43831 -90.07830 44933 ft 559 kts 41°
2026-05-05 23:49 31.48965 -90.00983 44932 ft 559 kts 41°
2026-05-05 23:49 31.54059 -89.94178 44930 ft 560 kts 41°
2026-05-05 23:50 31.59206 -89.87290 44933 ft 563 kts 41°
2026-05-05 23:50 31.64402 -89.80320 44935 ft 564 kts 41°
2026-05-05 23:51 31.69567 -89.73383 44936 ft 564 kts 41°
2026-05-05 23:51 31.74692 -89.66484 44940 ft 564 kts 41°
2026-05-05 23:52 31.79848 -89.59532 44985 ft 564 kts 41°
2026-05-05 23:52 31.85019 -89.52549 44940 ft 567 kts 41°
2026-05-05 23:53 31.90203 -89.45531 44942 ft 569 kts 41°
2026-05-05 23:53 31.95398 -89.38486 44948 ft 569 kts 41°
2026-05-05 23:54 32.00589 -89.31435 44945 ft 570 kts 41°
2026-05-05 23:54 32.05776 -89.24375 44943 ft 570 kts 41°
2026-05-05 23:55 32.10944 -89.17325 44935 ft 566 kts 41°
2026-05-05 23:55 32.16095 -89.10293 44937 ft 567 kts 41°
2026-05-05 23:56 32.21245 -89.03240 44940 ft 567 kts 41°
2026-05-05 23:56 32.26396 -88.96178 44950 ft 567 kts 41°
2026-05-05 23:57 32.30671 -88.90305 44954 ft 567 kts 41°
2026-05-05 23:57 32.35775 -88.83162 44926 ft 573 kts 45°
2026-05-05 23:58 32.39722 -88.74846 44940 ft 589 kts 62°
2026-05-05 23:58 32.42383 -88.65592 44960 ft 595 kts 67°
2026-05-05 23:59 32.45195 -88.56424 44959 ft 591 kts 62°
2026-05-05 23:59 32.48029 -88.47263 44969 ft 594 kts 66°
2026-05-06 00:00 32.50774 -88.38039 44950 ft 593 kts 63°
2026-05-06 00:00 32.53603 -88.28921 44957 ft 594 kts 65°
2026-05-06 00:01 32.56338 -88.19675 44955 ft 593 kts 64°
2026-05-06 00:01 32.59157 -88.10486 44954 ft 594 kts 64°
2026-05-06 00:02 32.61898 -88.01233 44958 ft 594 kts 64°
2026-05-06 00:02 32.64691 -87.92002 44958 ft 595 kts 64°
2026-05-06 00:03 32.67437 -87.82744 44956 ft 595 kts 64°
2026-05-06 00:03 32.70206 -87.73484 44957 ft 595 kts 64°
2026-05-06 00:04 32.72949 -87.64215 44960 ft 594 kts 64°
2026-05-06 00:04 32.75691 -87.54958 44955 ft 594 kts 64°
2026-05-06 00:05 32.79771 -87.41104 44955 ft 595 kts 64°
2026-05-06 00:06 32.82498 -87.31829 44973 ft 594 kts 64°
2026-05-06 00:06 32.85210 -87.22552 44956 ft 593 kts 64°
2026-05-06 00:07 32.87921 -87.13268 44957 ft 594 kts 64°
2026-05-06 00:07 32.90622 -87.03975 44950 ft 594 kts 64°
2026-05-06 00:08 32.93321 -86.94667 44965 ft 595 kts 64°
2026-05-06 00:08 32.96002 -86.85382 44960 ft 591 kts 64°
2026-05-06 00:09 32.98658 -86.76174 44968 ft 592 kts 64°
2026-05-06 00:09 33.01338 -86.66833 44972 ft 592 kts 64°
2026-05-06 00:10 33.03998 -86.57547 44973 ft 592 kts 64°
2026-05-06 00:10 33.06619 -86.48349 44991 ft 588 kts 64°
2026-05-06 00:11 33.09250 -86.39111 44999 ft 589 kts 64°
2026-05-06 00:11 33.11874 -86.29852 45002 ft 590 kts 64°
2026-05-06 00:12 33.14494 -86.20582 44980 ft 590 kts 64°
2026-05-06 00:12 33.17102 -86.11319 44982 ft 587 kts 64°
2026-05-06 00:13 33.19703 -86.02064 44984 ft 588 kts 64°
2026-05-06 00:13 33.22296 -85.92797 44985 ft 588 kts 64°
2026-05-06 00:14 33.24880 -85.83534 44993 ft 588 kts 64°
2026-05-06 00:14 33.27461 -85.74254 44993 ft 588 kts 65°
2026-05-06 00:15 33.30016 -85.65031 44992 ft 588 kts 65°
2026-05-06 00:15 33.32583 -85.55742 44992 ft 588 kts 65°
2026-05-06 00:16 33.35141 -85.46451 44992 ft 588 kts 65°
2026-05-06 00:16 33.37692 -85.37155 44999 ft 586 kts 65°
2026-05-06 00:17 33.40229 -85.27884 45020 ft 586 kts 65°
2026-05-06 00:17 33.42758 -85.18607 45030 ft 586 kts 65°
2026-05-06 00:18 33.45280 -85.09326 45036 ft 586 kts 65°
2026-05-06 00:18 33.47791 -85.00053 45042 ft 584 kts 65°
2026-05-06 00:19 33.50287 -84.90811 45022 ft 583 kts 65°
2026-05-06 00:19 33.52778 -84.81554 45023 ft 584 kts 65°
2026-05-06 00:20 33.55262 -84.72285 45014 ft 584 kts 65°
2026-05-06 00:20 33.57743 -84.63007 45012 ft 583 kts 65°
2026-05-06 00:21 33.60200 -84.53774 45006 ft 581 kts 65°
2026-05-06 00:21 33.62601 -84.44570 44995 ft 585 kts 69°
2026-05-06 00:22 33.63876 -84.34826 45017 ft 594 kts 79°
2026-05-06 00:22 33.64782 -84.24972 45022 ft 589 kts 77°
2026-05-06 00:23 33.65865 -84.15242 45019 ft 590 kts 78°
2026-05-06 00:23 33.66778 -84.05445 45019 ft 590 kts 78°
2026-05-06 00:24 33.67813 -83.95670 45015 ft 590 kts 78°
2026-05-06 00:24 33.68743 -83.85893 45011 ft 588 kts 78°
2026-05-06 00:25 33.69730 -83.76148 45012 ft 588 kts 78°
2026-05-06 00:25 33.70661 -83.66452 45012 ft 589 kts 78°
2026-05-06 00:26 33.71614 -83.56694 45008 ft 588 kts 78°
2026-05-06 00:26 33.72547 -83.46947 45011 ft 585 kts 78°
2026-05-06 00:27 33.73473 -83.37241 45015 ft 585 kts 78°
2026-05-06 00:27 33.74601 -83.27582 45005 ft 579 kts 70°
2026-05-06 00:28 33.77387 -83.18708 45020 ft 560 kts 54°
2026-05-06 00:28 33.81354 -83.10759 45015 ft 552 kts 49°
2026-05-06 00:29 33.85136 -83.02653 45023 ft 559 kts 55°
2026-05-06 00:29 33.88867 -82.94481 45018 ft 555 kts 51°
2026-05-06 00:30 33.92690 -82.86392 45021 ft 558 kts 53°
2026-05-06 00:30 33.96405 -82.78194 45016 ft 556 kts 52°
2026-05-06 00:31 34.00200 -82.70093 45058 ft 555 kts 53°
2026-05-06 00:31 34.03911 -82.61927 45016 ft 555 kts 53°
2026-05-06 00:32 34.07677 -82.53794 44648 ft 554 kts 53°
2026-05-06 00:32 34.09510 -82.49758 44006 ft 543 kts 53°
2026-05-06 00:32 34.11307 -82.45792 43385 ft 534 kts 53°
2026-05-06 00:32 34.13072 -82.41950 42793 ft 527 kts 52°
2026-05-06 00:33 34.14865 -82.38054 42211 ft 521 kts 52°
2026-05-06 00:33 34.16575 -82.34299 41658 ft 514 kts 52°
2026-05-06 00:33 34.18283 -82.30526 41113 ft 508 kts 52°
2026-05-06 00:33 34.19979 -82.26800 40585 ft 503 kts 52°
2026-05-06 00:34 34.21662 -82.23115 40066 ft 499 kts 51°
2026-05-06 00:34 34.23323 -82.19460 39590 ft 494 kts 51°
2026-05-06 00:34 34.24965 -82.15832 39095 ft 489 kts 51°
2026-05-06 00:34 34.26664 -82.12314 38590 ft 482 kts 49°
2026-05-06 00:35 34.28364 -82.08835 38015 ft 478 kts 49°
2026-05-06 00:35 34.30034 -82.05383 37457 ft 473 kts 49°
2026-05-06 00:35 34.31690 -82.01957 36775 ft 471 kts 49°
2026-05-06 00:35 34.33342 -81.98555 36014 ft 467 kts 49°
2026-05-06 00:36 34.34975 -81.95184 35278 ft 460 kts 49°
2026-05-06 00:36 34.36573 -81.91876 34571 ft 452 kts 49°
2026-05-06 00:36 34.38150 -81.88611 33872 ft 445 kts 49°
2026-05-06 00:36 34.39706 -81.85395 33105 ft 440 kts 49°
2026-05-06 00:37 34.41223 -81.82245 32861 ft 426 kts 49°
2026-05-06 00:37 34.42716 -81.79159 32153 ft 434 kts 50°
2026-05-06 00:37 34.44266 -81.75959 31414 ft 434 kts 50°
2026-05-06 00:37 34.45773 -81.72810 30715 ft 430 kts 51°
2026-05-06 00:38 34.47262 -81.69696 30007 ft 424 kts 51°
2026-05-06 00:38 34.48740 -81.66625 29189 ft 418 kts 51°
2026-05-06 00:38 34.50193 -81.63606 28396 ft 411 kts 52°
2026-05-06 00:38 34.51598 -81.60674 27633 ft 405 kts 52°
2026-05-06 00:39 34.52994 -81.57756 26882 ft 400 kts 53°
2026-05-06 00:39 34.54389 -81.54843 26147 ft 395 kts 53°
2026-05-06 00:39 34.55763 -81.51974 25435 ft 391 kts 53°
2026-05-06 00:39 34.57124 -81.49127 24743 ft 388 kts 53°
2026-05-06 00:40 34.58466 -81.46313 24069 ft 384 kts 54°
2026-05-06 00:40 34.59798 -81.43522 23377 ft 380 kts 54°
2026-05-06 00:40 34.61114 -81.40760 22585 ft 375 kts 54°
2026-05-06 00:40 34.62380 -81.38021 21814 ft 371 kts 58°
2026-05-06 00:41 34.63473 -81.35205 21065 ft 366 kts 61°
2026-05-06 00:41 34.64488 -81.32387 20339 ft 361 kts 62°
2026-05-06 00:41 34.65479 -81.29604 19630 ft 356 kts 63°
2026-05-06 00:41 34.66461 -81.26863 18942 ft 351 kts 63°
2026-05-06 00:42 34.67417 -81.24152 18258 ft 347 kts 64°
2026-05-06 00:42 34.68269 -81.21430 17492 ft 344 kts 66°
2026-05-06 00:42 34.69110 -81.18704 16722 ft 346 kts 66°
2026-05-06 00:42 34.70010 -81.15962 15990 ft 358 kts 65°
2026-05-06 00:43 34.70962 -81.13102 15277 ft 372 kts 65°
2026-05-06 00:43 34.71919 -81.10134 14577 ft 382 kts 66°
2026-05-06 00:43 34.72878 -81.07123 13895 ft 380 kts 66°
2026-05-06 00:43 34.73836 -81.04149 13129 ft 375 kts 66°
2026-05-06 00:44 34.74470 -81.02202 12624 ft 373 kts 66°
2026-05-06 00:44 34.75416 -80.99282 11881 ft 369 kts 66°
2026-05-06 00:44 34.76330 -80.96436 11151 ft 354 kts 66°
2026-05-06 00:44 34.77208 -80.93700 10436 ft 341 kts 66°
2026-05-06 00:45 34.78062 -80.91050 9705 ft 332 kts 66°
2026-05-06 00:45 34.78894 -80.88471 8932 ft 323 kts 68°
2026-05-06 00:45 34.79700 -80.85962 8347 ft 311 kts 68°
2026-05-06 00:45 34.80468 -80.83564 7849 ft 299 kts 69°
2026-05-06 00:46 34.81212 -80.81248 7355 ft 289 kts 70°
2026-05-06 00:46 34.81933 -80.78999 6870 ft 282 kts 70°
2026-05-06 00:46 34.82637 -80.76798 6384 ft 276 kts 71°
2026-05-06 00:46 34.83328 -80.74638 5877 ft 273 kts 71°
2026-05-06 00:47 34.84015 -80.72486 5365 ft 272 kts 71°
2026-05-06 00:47 34.84698 -80.70349 4884 ft 270 kts 72°
2026-05-06 00:47 34.85374 -80.68233 4385 ft 268 kts 72°
2026-05-06 00:47 34.86046 -80.66124 3892 ft 266 kts 72°
2026-05-06 00:48 34.86711 -80.64039 3450 ft 262 kts 73°
2026-05-06 00:48 34.87361 -80.62004 3208 ft 254 kts 73°
2026-05-06 00:48 34.87991 -80.60027 2994 ft 246 kts 73°
2026-05-06 00:48 34.88593 -80.58144 2993 ft 232 kts 73°
2026-05-06 00:49 34.89458 -80.56494 2946 ft 234 kts 48°
2026-05-06 00:49 34.90605 -80.55177 2999 ft 228 kts 46°
2026-05-06 00:49 34.91756 -80.53822 2998 ft 226 kts 48°
2026-05-06 00:49 34.92856 -80.52504 2994 ft 224 kts 47°
2026-05-06 00:50 34.93968 -80.51181 2995 ft 221 kts 47°
2026-05-06 00:50 34.95042 -80.49910 2993 ft 209 kts 47°
2026-05-06 00:50 34.96065 -80.48697 2994 ft 201 kts 48°
2026-05-06 00:50 34.97047 -80.47525 3010 ft 193 kts 48°
2026-05-06 00:51 34.97970 -80.46396 3048 ft 183 kts 49°
2026-05-06 00:51 34.98838 -80.45294 2902 ft 180 kts 51°
2026-05-06 00:51 34.99709 -80.44215 2792 ft 176 kts 44°
2026-05-06 00:51 35.00805 -80.43595 2682 ft 175 kts
2026-05-06 00:52 35.01986 -80.43810 2512 ft 170 kts 330°
2026-05-06 00:52 35.03063 -80.44397 2378 ft 169 kts 330°
2026-05-06 00:52 35.04127 -80.45003 2313 ft 168 kts 329°
2026-05-06 00:52 35.05172 -80.45620 2299 ft 165 kts 330°
2026-05-06 00:53 35.06277 -80.46282 1998 ft 191 kts 330°
2026-05-06 00:53 35.07477 -80.47059 1974 ft 198 kts 327°
2026-05-06 00:53 35.08575 -80.48085 1992 ft 198 kts 308°
2026-05-06 00:53 35.09382 -80.49427 2140 ft 193 kts 291°
2026-05-06 00:54 35.09833 -80.50913 2351 ft 183 kts 276°
2026-05-06 00:54 35.09674 -80.52463 2056 ft 192 kts 241°
2026-05-06 00:54 35.08961 -80.53793 1856 ft 176 kts 225°
2026-05-06 00:54 35.08081 -80.54684 1711 ft 155 kts 214°
2026-05-06 00:55 35.07261 -80.55466 1591 ft 142 kts 215°
2026-05-06 00:55 35.06525 -80.56237 1459 ft 137 kts 217°
2026-05-06 00:55 35.05823 -80.56977 1383 ft 134 kts 220°
2026-05-06 00:55 35.05153 -80.57767 1355 ft 133 kts 222°
2026-05-06 00:56 35.04532 -80.58572 1310 ft 127 kts 225°
2026-05-06 00:56 35.03937 -80.59355 1055 ft 125 kts 227°
2026-05-06 00:56 35.03355 -80.60098 952 ft 117 kts 226°
2026-05-06 00:56 35.02807 -80.60818 831 ft 115 kts 226°
2026-05-06 00:57 35.02270 -80.61522 687 ft 110 kts 226°
2026-05-06 00:57 35.01824 -80.62104 678 ft 69 kts 227°
2026-05-06 00:57 35.01609 -80.62383 682 ft 31 kts 227°
2026-05-06 00:57 35.01498 -80.62527 687 ft 17 kts 227°
2026-05-06 00:58 35.01428 -80.62618 686 ft 15 kts 226°
2026-05-06 00:58 35.01393 -80.62715 687 ft 13 kts 308°
2026-05-06 00:58 35.01447 -80.62735 686 ft 8 kts 40°
2026-05-06 00:58 35.01496 -80.62674 685 ft 12 kts 46°
2026-05-06 00:59 35.01566 -80.62583 684 ft 17 kts 47°
2026-05-06 00:59 35.01657 -80.62463 680 ft 22 kts 47°
2026-05-06 00:59 35.01765 -80.62331 680 ft 22 kts 46°
2026-05-06 00:59 35.01873 -80.62190 677 ft 23 kts 47°
2026-05-06 01:00 35.01965 -80.62074 675 ft 6 kts 21°
2026-05-06 01:00 35.01999 -80.62099 677 ft 6 kts 307°
2026-05-06 01:00 35.01991 -80.62116 677 ft 0 kts 187°